CW5709 Weather Reports


time (UTC)temp
C
wind
direction
speed
KPH
gust
KPH
rain 1hr
cm
rain 24hr
cm
rain mn
cm
humidity
%
barometer
mb
20260503213010 33 0.0 0.0 0.00 0.00 0.00 33 1009.4
20260503211515 32 0.0 0.0 0.00 0.00 0.00 37 1009.6
20260503210005 32 0.0 0.0 0.00 0.00 0.00 38 1009.6
20260503204512 31 0.0 0.0 0.00 0.00 0.00 37 1009.9
20260503203008 31 0.0 0.0 0.00 0.00 0.00 39 1010.2
20260503201513 30 0.0 0.0 0.00 0.00 0.00 39 1010.4
20260503200016 29 0.0 0.0 0.00 0.00 0.00 42 1010.6
20260503194504 28 0.0 0.0 0.00 0.00 0.00 46 1010.6
20260503193007 27 0.0 0.0 0.00 0.00 0.00 49 1010.7
20260503191527 25 0.0 0.0 0.00 0.00 0.00 54 1010.8
20260503190014 23 0.0 0.0 0.00 0.00 0.00 59 1011.0
20260503184519 21 0.0 0.0 0.00 0.00 0.00 63 1011.1
20260503183005 21 0.0 0.0 0.00 0.00 0.00 66 1011.2
20260503181508 20 0.0 0.0 0.00 0.00 0.00 70 1011.4
20260503180014 19 0.0 0.0 0.00 0.00 0.00 72 1011.5
20260503174516 18 0.0 0.0 0.00 0.00 0.00 76 1011.7
20260503173021 17 0.0 0.0 0.00 0.00 0.00 79 1011.7
20260503171504 16 0.0 0.0 0.00 0.00 0.00 82 1011.9
20260503081515 12 0.0 0.0 0.00 0.05 0.00 85 1012.4
20260503054510 15 0.0 0.0 0.00 0.05 0.05 78 1012.9
20260503053018 15 0.0 0.0 0.00 0.05 0.05 77 1012.9
20260503051515 16 0.0 0.0 0.00 0.05 0.05 76 1012.9
20260503050014 16 0.0 0.0 0.00 0.05 0.05 75 1012.7
20260503044516 16 0.0 0.0 0.00 0.05 0.05 75 1012.8
20260503043031 17 0.0 0.0 0.00 0.05 0.05 74 1012.8
20260503041518 17 0.0 0.0 0.00 0.05 0.05 73 1012.8
20260503040018 17 0.0 0.0 0.00 0.05 0.05 72 1012.6
20260503034514 17 0.0 0.0 0.00 0.05 0.05 72 1011.9
20260503033018 17 0.0 0.0 0.00 0.05 0.05 71 1011.4
20260503031516 18 0.0 0.0 0.00 0.05 0.05 70 1011.4
20260503030019 18 0.0 0.0 0.00 0.05 0.05 67 1011.7
20260503024525 18 0.0 0.0 0.00 0.05 0.05 66 1011.9
20260503023006 19 0.0 0.0 0.00 0.05 0.05 64 1012.2
20260503021534 20 0.0 0.0 0.00 0.05 0.05 63 1012.4
20260503020018 20 0.0 0.0 0.00 0.05 0.05 61 1012.4
20260503014517 20 0.0 0.0 0.00 0.05 0.05 59 1012.3
20260503013019 21 0.0 0.0 0.00 0.05 0.05 57 1012.7
20260503011506 21 0.0 0.0 0.00 0.05 0.05 55 1012.5
20260503010014 21 0.0 0.0 0.00 0.05 0.05 56 1012.4
20260503004520 21 0.0 0.0 0.00 0.05 0.05 56 1012.3
20260503001521 21 0.0 0.0 0.00 0.05 0.05 56 1012.3
20260503000011 21 0.0 0.0 0.00 0.05 0.05 56 1012.0
20260502234516 21 0.0 0.0 0.00 0.05 0.05 54 1012.2
20260502233022 21 0.0 0.0 0.00 0.05 0.05 54 1012.3
20260502231524 22 0.0 0.0 0.00 0.05 0.05 52 1012.4
20260502230025 22 0.0 0.0 0.00 0.05 0.05 52 1012.7
20260502224512 22 0.0 0.0 0.00 0.05 0.05 49 1012.8
20260502223016 23 0.0 0.0 0.00 0.05 0.05 49 1013.1
20260502221521 22 0.0 0.0 0.00 0.05 0.05 48 1013.5
20260502220029 22 0.0 0.0 0.00 0.05 0.05 48 1013.7
20260502214523 22 0.0 0.0 0.00 0.05 0.05 51 1013.9